| time (UTC) | temp C | wind direction | speed KPH | gust KPH | rain 1hr cm | rain 24hr cm | rain mn cm | humidity % | barometer mb |
| 20260503022502 | 9 | 126 | 0.0 | 0.0 | 0.00 | 0.00 | 0.00 | 68 | 1021.2 |
| 20260503022005 | 10 | 126 | 0.0 | 0.0 | 0.00 | 0.00 | 0.00 | 67 | 1021.2 |
| 20260503021504 | 10 | 126 | 0.0 | 0.0 | 0.00 | 0.00 | 0.00 | 65 | 1021.5 |
| 20260503021003 | 10 | 126 | 0.0 | 0.0 | 0.00 | 0.00 | 0.00 | 64 | 1021.3 |
| 20260503020502 | 10 | 126 | 0.0 | 0.0 | 0.00 | 0.00 | 0.00 | 64 | 1021.4 |
| 20260503020003 | 10 | 125 | 0.0 | 3.2 | 0.00 | 0.00 | 0.00 | 64 | 1021.5 |
| 20260503015502 | 10 | 124 | 0.0 | 0.0 | 0.00 | 0.00 | 0.00 | 65 | 1021.4 |
| 20260503015002 | 10 | 124 | 0.0 | 0.0 | 0.00 | 0.00 | 0.00 | 63 | 1021.5 |
| 20260503014503 | 11 | 124 | 0.0 | 0.0 | 0.00 | 0.00 | 0.00 | 62 | 1021.3 |
| 20260503014003 | 11 | 124 | 0.0 | 0.0 | 0.00 | 0.00 | 0.00 | 60 | 1021.4 |
| 20260503013503 | 11 | 124 | 0.0 | 0.0 | 0.00 | 0.00 | 0.00 | 60 | 1021.5 |
| 20260503013002 | 11 | 124 | 0.0 | 1.6 | 0.00 | 0.00 | 0.00 | 60 | 1021.5 |
| 20260503012508 | 11 | 123 | 0.0 | 0.0 | 0.00 | 0.00 | 0.00 | 59 | 1021.3 |
| 20260503012004 | 11 | 123 | 0.0 | 0.0 | 0.00 | 0.00 | 0.00 | 58 | 1021.5 |
| 20260503011503 | 12 | 124 | 0.0 | 1.6 | 0.00 | 0.00 | 0.00 | 58 | 1021.6 |
| 20260503011002 | 12 | 94 | 0.0 | 0.0 | 0.00 | 0.00 | 0.00 | 57 | 1021.3 |
| 20260503010503 | 12 | 101 | 0.0 | 0.0 | 0.00 | 0.00 | 0.00 | 56 | 1021.4 |
| 20260503010002 | 12 | 119 | 0.0 | 1.6 | 0.00 | 0.00 | 0.00 | 55 | 1021.6 |
| 20260503005504 | 13 | 112 | 0.0 | 1.6 | 0.00 | 0.00 | 0.00 | 55 | 1021.8 |
| 20260503005004 | 13 | 112 | 0.0 | 1.6 | 0.00 | 0.00 | 0.00 | 55 | 1021.5 |
| 20260503004503 | 13 | 131 | 1.6 | 1.6 | 0.00 | 0.00 | 0.00 | 54 | 1021.7 |
| 20260503004003 | 13 | 118 | 0.0 | 1.6 | 0.00 | 0.00 | 0.00 | 55 | 1021.5 |
| 20260503003503 | 13 | 103 | 0.0 | 1.6 | 0.00 | 0.00 | 0.00 | 54 | 1021.6 |
| 20260503003002 | 13 | 100 | 1.6 | 3.2 | 0.00 | 0.00 | 0.00 | 54 | 1021.5 |
| 20260503002503 | 13 | 113 | 0.0 | 0.0 | 0.00 | 0.00 | 0.00 | 54 | 1021.7 |
| 20260503002003 | 13 | 113 | 0.0 | 1.6 | 0.00 | 0.00 | 0.00 | 54 | 1021.7 |
| 20260503001503 | 13 | 101 | 0.0 | 1.6 | 0.00 | 0.00 | 0.00 | 54 | 1021.7 |
| 20260503001004 | 13 | 116 | 0.0 | 3.2 | 0.00 | 0.00 | 0.00 | 54 | 1021.9 |
| 20260503000503 | 13 | 137 | 1.6 | 4.8 | 0.00 | 0.00 | 0.00 | 53 | 1021.9 |
| 20260503000003 | 13 | 136 | 0.0 | 1.6 | 0.00 | 0.00 | 0.00 | 54 | 1022.0 |
| 20260502235502 | 13 | 72 | 1.6 | 3.2 | 0.00 | 0.00 | 0.00 | 53 | 1021.9 |
| 20260502235003 | 13 | 84 | 0.0 | 3.2 | 0.00 | 0.00 | 0.00 | 53 | 1021.9 |
| 20260502234502 | 14 | 113 | 3.2 | 3.2 | 0.00 | 0.00 | 0.00 | 52 | 1022.0 |
| 20260502234003 | 14 | 107 | 1.6 | 4.8 | 0.00 | 0.00 | 0.00 | 52 | 1022.2 |
| 20260502233502 | 13 | 139 | 3.2 | 4.8 | 0.00 | 0.00 | 0.00 | 52 | 1022.0 |
| 20260502233003 | 13 | 97 | 0.0 | 4.8 | 0.00 | 0.00 | 0.00 | 53 | 1022.1 |
| 20260502232504 | 13 | 99 | 0.0 | 3.2 | 0.00 | 0.00 | 0.00 | 54 | 1022.1 |
| 20260502232005 | 13 | 116 | 1.6 | 1.6 | 0.00 | 0.00 | 0.00 | 54 | 1022.0 |
| 20260502231503 | 13 | 117 | 0.0 | 0.0 | 0.00 | 0.00 | 0.00 | 54 | 1021.9 |
| 20260502231002 | 13 | 91 | 0.0 | 1.6 | 0.00 | 0.00 | 0.00 | 54 | 1022.3 |
| 20260502230506 | 13 | 93 | 0.0 | 3.2 | 0.00 | 0.00 | 0.00 | 55 | 1022.3 |
| 20260502230003 | 13 | 118 | 1.6 | 1.6 | 0.00 | 0.00 | 0.00 | 57 | 1022.3 |
| 20260502225503 | 12 | 97 | 0.0 | 1.6 | 0.00 | 0.00 | 0.00 | 59 | 1022.3 |
| 20260502225003 | 11 | 187 | 3.2 | 3.2 | 0.00 | 0.00 | 0.00 | 64 | 1022.3 |
| 20260502224502 | 11 | 54 | 0.0 | 0.0 | 0.00 | 0.00 | 0.00 | 64 | 1022.6 |
| 20260502224003 | 11 | 59 | 0.0 | 0.0 | 0.00 | 0.00 | 0.00 | 64 | 1022.4 |
| 20260502223503 | 11 | 93 | 0.0 | 1.6 | 0.00 | 0.00 | 0.00 | 65 | 1022.5 |
| 20260502223003 | 9 | 127 | 3.2 | 3.2 | 0.00 | 0.00 | 0.00 | 69 | 1022.6 |
| 20260502222503 | 8 | 4 | 1.6 | 1.6 | 0.00 | 0.00 | 0.00 | 78 | 1022.5 |
| 20260502222003 | 8 | 68 | 0.0 | 0.0 | 0.00 | 0.00 | 0.00 | 78 | 1022.6 |
| 20260502221502 | 8 | 68 | 0.0 | 0.0 | 0.00 | 0.00 | 0.00 | 77 | 1022.5 |
| 20260502221003 | 8 | 68 | 0.0 | 0.0 | 0.00 | 0.00 | 0.00 | 76 | 1022.3 |
| 20260502220502 | 8 | 68 | 0.0 | 0.0 | 0.00 | 0.00 | 0.00 | 77 | 1022.4 |
| 20260502220005 | 8 | 68 | 0.0 | 0.0 | 0.00 | 0.00 | 0.00 | 76 | 1022.4 |
| 20260502215503 | 9 | 68 | 0.0 | 0.0 | 0.00 | 0.00 | 0.00 | 76 | 1022.4 |
| 20260502215003 | 9 | 68 | 0.0 | 0.0 | 0.00 | 0.00 | 0.00 | 74 | 1022.5 |
| 20260502214504 | 10 | 68 | 0.0 | 0.0 | 0.00 | 0.00 | 0.00 | 73 | 1022.4 |
| 20260502214003 | 10 | 68 | 0.0 | 0.0 | 0.00 | 0.00 | 0.00 | 72 | 1022.4 |
| 20260502213502 | 10 | 68 | 0.0 | 0.0 | 0.00 | 0.00 | 0.00 | 71 | 1022.4 |
| 20260502213004 | 10 | 68 | 0.0 | 0.0 | 0.00 | 0.00 | 0.00 | 71 | 1022.4 |
| 20260502212502 | 10 | 68 | 0.0 | 0.0 | 0.00 | 0.00 | 0.00 | 71 | 1022.2 |
| 20260502212004 | 10 | 68 | 0.0 | 0.0 | 0.00 | 0.00 | 0.00 | 69 | 1022.3 |
| 20260502211505 | 10 | 69 | 0.0 | 0.0 | 0.00 | 0.00 | 0.00 | 69 | 1022.4 |
| 20260502211003 | 10 | 69 | 0.0 | 0.0 | 0.00 | 0.00 | 0.00 | 67 | 1022.6 |
| 20260502210504 | 11 | 69 | 0.0 | 0.0 | 0.00 | 0.00 | 0.00 | 65 | 1022.7 |
| 20260502210002 | 11 | 69 | 0.0 | 0.0 | 0.00 | 0.00 | 0.00 | 65 | 1022.5 |
| 20260502205503 | 11 | 69 | 0.0 | 0.0 | 0.00 | 0.00 | 0.00 | 64 | 1022.6 |
| 20260502205003 | 11 | 69 | 0.0 | 1.6 | 0.00 | 0.00 | 0.00 | 63 | 1022.6 |
| 20260502204502 | 11 | 140 | 0.0 | 0.0 | 0.00 | 0.00 | 0.00 | 63 | 1022.8 |
| 20260502204004 | 11 | 140 | 0.0 | 0.0 | 0.00 | 0.00 | 0.00 | 62 | 1022.7 |
| 20260502203503 | 12 | 140 | 0.0 | 0.0 | 0.00 | 0.00 | 0.00 | 61 | 1022.8 |
| 20260502203004 | 12 | 140 | 0.0 | 0.0 | 0.00 | 0.00 | 0.00 | 61 | 1022.7 |
| 20260502202502 | 12 | 140 | 0.0 | 0.0 | 0.00 | 0.00 | 0.00 | 60 | 1022.7 |
| 20260502202002 | 12 | 140 | 0.0 | 0.0 | 0.00 | 0.00 | 0.00 | 58 | 1022.7 |
| 20260502201505 | 13 | 140 | 0.0 | 0.0 | 0.00 | 0.00 | 0.00 | 57 | 1022.9 |
| 20260502201004 | 13 | 140 | 0.0 | 0.0 | 0.00 | 0.00 | 0.00 | 56 | 1022.7 |
| 20260502200503 | 13 | 140 | 0.0 | 0.0 | 0.00 | 0.00 | 0.00 | 54 | 1022.8 |
| 20260502200005 | 13 | 139 | 0.0 | 0.0 | 0.00 | 0.00 | 0.00 | 55 | 1022.7 |
| 20260502195506 | 13 | 139 | 0.0 | 0.0 | 0.00 | 0.00 | 0.00 | 56 | 1022.8 |
| 20260502195003 | 13 | 139 | 0.0 | 0.0 | 0.00 | 0.00 | 0.00 | 56 | 1022.9 |
| 20260502194503 | 13 | 139 | 0.0 | 0.0 | 0.00 | 0.00 | 0.00 | 57 | 1022.9 |
| 20260502194003 | 12 | 138 | 0.0 | 0.0 | 0.00 | 0.00 | 0.00 | 58 | 1023.0 |
| 20260502193504 | 12 | 139 | 1.6 | 3.2 | 0.00 | 0.00 | 0.00 | 57 | 1022.9 |
| 20260502193002 | 12 | 136 | 0.0 | 0.0 | 0.00 | 0.00 | 0.00 | 59 | 1023.0 |
| 20260502192503 | 12 | 136 | 0.0 | 0.0 | 0.00 | 0.00 | 0.00 | 58 | 1023.0 |
| 20260502192003 | 12 | 136 | 0.0 | 0.0 | 0.00 | 0.00 | 0.00 | 57 | 1023.0 |
| 20260502191504 | 13 | 136 | 0.0 | 0.0 | 0.00 | 0.00 | 0.00 | 56 | 1023.2 |
| 20260502191003 | 13 | 136 | 0.0 | 0.0 | 0.00 | 0.00 | 0.00 | 56 | 1023.0 |
| 20260502190503 | 13 | 136 | 0.0 | 0.0 | 0.00 | 0.00 | 0.00 | 54 | 1022.9 |
| 20260502190005 | 14 | 136 | 0.0 | 0.0 | 0.00 | 0.00 | 0.00 | 52 | 1022.8 |
| 20260502185506 | 15 | 136 | 0.0 | 0.0 | 0.00 | 0.00 | 0.00 | 50 | 1022.8 |
| 20260502185002 | 15 | 136 | 0.0 | 0.0 | 0.00 | 0.00 | 0.00 | 49 | 1023.0 |
| 20260502184502 | 15 | 136 | 0.0 | 0.0 | 0.00 | 0.00 | 0.00 | 47 | 1023.0 |
| 20260502184003 | 16 | 136 | 0.0 | 0.0 | 0.00 | 0.00 | 0.00 | 46 | 1022.9 |
| 20260502183503 | 17 | 136 | 0.0 | 0.0 | 0.00 | 0.00 | 0.00 | 43 | 1022.8 |
| 20260502183002 | 18 | 136 | 0.0 | 0.0 | 0.00 | 0.00 | 0.00 | 40 | 1022.6 |
| 20260502182503 | 19 | 136 | 0.0 | 0.0 | 0.00 | 0.00 | 0.00 | 38 | 1022.8 |
| 20260502182002 | 20 | 136 | 0.0 | 1.6 | 0.00 | 0.00 | 0.00 | 36 | 1022.8 |
| 20260502181504 | 20 | 138 | 0.0 | 3.2 | 0.00 | 0.00 | 0.00 | 34 | 1022.6 |
| 20260502181003 | 20 | 98 | 0.0 | 0.0 | 0.00 | 0.00 | 0.00 | 33 | 1022.5 |
| 20260502180503 | 21 | 142 | 0.0 | 0.0 | 0.00 | 0.00 | 0.00 | 32 | 1022.6 |
| 20260502170503 | 23 | 143 | 1.6 | 8.0 | 0.00 | 0.00 | 0.00 | 28 | 1023.1 |
| 20260502164002 | 24 | 168 | 3.2 | 8.0 | 0.00 | 0.00 | 0.00 | 26 | 1023.3 |
| 20260502163504 | 24 | 104 | 1.6 | 4.8 | 0.00 | 0.00 | 0.00 | 27 | 1023.3 |
| 20260502163004 | 25 | 164 | 3.2 | 9.7 | 0.00 | 0.00 | 0.00 | 27 | 1023.4 |
| 20260502162503 | 24 | 134 | 3.2 | 9.7 | 0.00 | 0.00 | 0.00 | 28 | 1023.5 |
| 20260502162003 | 24 | 170 | 4.8 | 9.7 | 0.00 | 0.00 | 0.00 | 28 | 1023.7 |
| 20260502161502 | 24 | 161 | 1.6 | 9.7 | 0.00 | 0.00 | 0.00 | 28 | 1023.6 |
| 20260502161005 | 24 | 169 | 1.6 | 8.0 | 0.00 | 0.00 | 0.00 | 27 | 1023.7 |
| 20260502160503 | 25 | 141 | 6.4 | 11.3 | 0.00 | 0.00 | 0.00 | 27 | 1023.8 |
| 20260502152003 | 25 | 203 | 4.8 | 8.0 | 0.00 | 0.00 | 0.00 | 27 | 1024.2 |
| 20260502151504 | 25 | 155 | 1.6 | 9.7 | 0.00 | 0.00 | 0.00 | 26 | 1024.4 |
| 20260502151002 | 25 | 134 | 9.7 | 12.9 | 0.00 | 0.00 | 0.00 | 25 | 1024.3 |
| 20260502150504 | 25 | 214 | 3.2 | 4.8 | 0.00 | 0.00 | 0.00 | 26 | 1024.4 |
| 20260502130502 | 25 | 222 | 6.4 | 11.3 | 0.00 | 0.00 | 0.00 | 26 | 1026.0 |
| 20260502123502 | 26 | 336 | 1.6 | 3.2 | 0.00 | 0.00 | 0.00 | 26 | 1026.2 |
| 20260502123002 | 25 | 184 | 4.8 | 4.8 | 0.00 | 0.00 | 0.00 | 26 | 1026.3 |
| 20260502122503 | 25 | 89 | 1.6 | 8.0 | 0.00 | 0.00 | 0.00 | 27 | 1026.3 |
| 20260502122003 | 25 | 30 | 1.6 | 1.6 | 0.00 | 0.00 | 0.00 | 26 | 1026.3 |
| 20260502121503 | 24 | 181 | 4.8 | 4.8 | 0.00 | 0.00 | 0.00 | 26 | 1026.4 |
| 20260502121004 | 24 | 180 | 8.0 | 9.7 | 0.00 | 0.00 | 0.00 | 27 | 1026.4 |
| 20260502120502 | 25 | 177 | 3.2 | 9.7 | 0.00 | 0.00 | 0.00 | 28 | 1026.7 |
| 20260502115505 | 24 | 50 | 1.6 | 3.2 | 0.00 | 0.00 | 0.00 | 27 | 1026.8 |
| 20260502115003 | 24 | 170 | 6.4 | 8.0 | 0.00 | 0.00 | 0.00 | 28 | 1026.8 |
| 20260502114504 | 25 | 275 | 4.8 | 8.0 | 0.00 | 0.00 | 0.00 | 27 | 1026.8 |
| 20260502114002 | 25 | 104 | 3.2 | 3.2 | 0.00 | 0.00 | 0.00 | 28 | 1026.8 |
| 20260502113504 | 25 | 188 | 3.2 | 4.8 | 0.00 | 0.00 | 0.00 | 29 | 1027.0 |
| 20260502113003 | 25 | 187 | 1.6 | 8.0 | 0.00 | 0.00 | 0.00 | 28 | 1026.9 |
| 20260502112503 | 25 | 171 | 3.2 | 4.8 | 0.00 | 0.00 | 0.00 | 28 | 1027.2 |
| 20260502112002 | 24 | 13 | 4.8 | 8.0 | 0.00 | 0.00 | 0.00 | 29 | 1027.3 |
| 20260502111502 | 25 | 82 | 0.0 | 3.2 | 0.00 | 0.00 | 0.00 | 29 | 1027.2 |
| 20260502111003 | 24 | 30 | 1.6 | 4.8 | 0.00 | 0.00 | 0.00 | 28 | 1027.3 |
| 20260502110503 | 23 | 60 | 8.0 | 9.7 | 0.00 | 0.00 | 0.00 | 28 | 1027.4 |
| 20260502110005 | 23 | 42 | 4.8 | 8.0 | 0.00 | 0.00 | 0.00 | 28 | 1027.3 |
| 20260502105503 | 23 | 165 | 3.2 | 4.8 | 0.00 | 0.00 | 0.00 | 29 | 1027.4 |
| 20260502105002 | 24 | 199 | 4.8 | 11.3 | 0.00 | 0.00 | 0.00 | 29 | 1027.3 |
| 20260502104503 | 25 | 183 | 6.4 | 11.3 | 0.00 | 0.00 | 0.00 | 28 | 1027.5 |
| 20260502104002 | 23 | 45 | 1.6 | 3.2 | 0.00 | 0.00 | 0.00 | 29 | 1027.6 |
| 20260502103505 | 23 | 92 | 3.2 | 9.7 | 0.00 | 0.00 | 0.00 | 29 | 1027.7 |
| 20260502103003 | 23 | 205 | 1.6 | 3.2 | 0.00 | 0.00 | 0.00 | 29 | 1027.5 |
| 20260502102502 | 23 | 347 | 1.6 | 4.8 | 0.00 | 0.00 | 0.00 | 31 | 1027.5 |
| 20260502102003 | 24 | 92 | 0.0 | 8.0 | 0.00 | 0.00 | 0.00 | 29 | 1027.9 |
| 20260502101504 | 23 | 106 | 3.2 | 3.2 | 0.00 | 0.00 | 0.00 | 31 | 1027.9 |
| 20260502101004 | 24 | 30 | 1.6 | 1.6 | 0.00 | 0.00 | 0.00 | 29 | 1027.9 |
| 20260502100502 | 23 | 45 | 1.6 | 11.3 | 0.00 | 0.00 | 0.00 | 28 | 1028.0 |
| 20260502091504 | 22 | 191 | 1.6 | 4.8 | 0.00 | 0.00 | 0.00 | 32 | 1028.6 |
| 20260502091006 | 23 | 185 | 1.6 | 4.8 | 0.00 | 0.00 | 0.00 | 33 | 1028.7 |
| 20260502090502 | 22 | 197 | 1.6 | 3.2 | 0.00 | 0.00 | 0.00 | 32 | 1028.6 |
| 20260502071503 | 18 | 157 | 0.0 | 1.6 | 0.00 | 0.00 | 0.00 | 48 | 1029.0 |
| 20260502071003 | 18 | 160 | 3.2 | 4.8 | 0.00 | 0.00 | 0.00 | 46 | 1029.1 |
| 20260502070504 | 18 | 142 | 0.0 | 0.0 | 0.00 | 0.00 | 0.00 | 48 | 1029.1 |
| 20260502070003 | 18 | 50 | 0.0 | 1.6 | 0.00 | 0.00 | 0.00 | 49 | 1029.2 |
| 20260502065502 | 17 | 113 | 1.6 | 1.6 | 0.00 | 0.00 | 0.00 | 51 | 1029.1 |
| 20260502065004 | 17 | 156 | 1.6 | 1.6 | 0.00 | 0.00 | 0.00 | 50 | 1029.0 |
| 20260502064503 | 17 | 125 | 0.0 | 1.6 | 0.00 | 0.00 | 0.00 | 52 | 1029.1 |
| 20260502064003 | 16 | 144 | 1.6 | 3.2 | 0.00 | 0.00 | 0.00 | 53 | 1029.2 |
| 20260502063505 | 16 | 130 | 0.0 | 0.0 | 0.00 | 0.00 | 0.00 | 55 | 1029.2 |
| 20260502063003 | 16 | 131 | 1.6 | 3.2 | 0.00 | 0.00 | 0.00 | 55 | 1029.2 |
| 20260502062505 | 16 | 105 | 0.0 | 1.6 | 0.00 | 0.00 | 0.00 | 57 | 1029.1 |
| 20260502062003 | 16 | 67 | 1.6 | 1.6 | 0.00 | 0.00 | 0.00 | 56 | 1029.2 |
| 20260502061504 | 15 | 56 | 1.6 | 1.6 | 0.00 | 0.00 | 0.00 | 58 | 1029.2 |
| 20260502061002 | 15 | 117 | 0.0 | 1.6 | 0.00 | 0.00 | 0.00 | 62 | 1029.1 |
| 20260502060503 | 14 | 116 | 0.0 | 3.2 | 0.00 | 0.00 | 0.00 | 63 | 1029.1 |
| 20260502060004 | 14 | 115 | 0.0 | 1.6 | 0.00 | 0.00 | 0.00 | 62 | 1029.3 |
| 20260502055505 | 14 | 98 | 1.6 | 1.6 | 0.00 | 0.00 | 0.00 | 61 | 1029.2 |
| 20260502055003 | 14 | 89 | 0.0 | 1.6 | 0.00 | 0.00 | 0.00 | 60 | 1029.3 |
| 20260502054502 | 14 | 13 | 0.0 | 0.0 | 0.00 | 0.00 | 0.00 | 61 | 1028.9 |
| 20260502054002 | 13 | 13 | 0.0 | 0.0 | 0.00 | 0.00 | 0.00 | 64 | 1029.1 |
| 20260502053503 | 13 | 13 | 0.0 | 0.0 | 0.00 | 0.00 | 0.00 | 63 | 1029.1 |
| 20260502053003 | 12 | 13 | 0.0 | 0.0 | 0.00 | 0.00 | 0.00 | 71 | 1029.2 |
| 20260502052503 | 12 | 13 | 0.0 | 0.0 | 0.00 | 0.00 | 0.00 | 74 | 1029.2 |
| 20260502052002 | 11 | 12 | 0.0 | 0.0 | 0.00 | 0.00 | 0.00 | 84 | 1029.1 |
| 20260502051502 | 10 | 12 | 0.0 | 0.0 | 0.00 | 0.00 | 0.00 | 89 | 1029.4 |
| 20260502051003 | 10 | 12 | 0.0 | 0.0 | 0.00 | 0.00 | 0.00 | 95 | 1029.0 |
| 20260502050504 | 8 | 12 | 0.0 | 0.0 | 0.00 | 0.00 | 0.00 | 97 | 1029.3 |
| 20260502050005 | 8 | 12 | 0.0 | 0.0 | 0.00 | 0.00 | 0.00 | 97 | 1029.1 |
| 20260502045503 | 8 | 12 | 0.0 | 0.0 | 0.00 | 0.00 | 0.00 | 97 | 1029.1 |
| 20260502045003 | 7 | 12 | 0.0 | 0.0 | 0.00 | 0.00 | 0.00 | 97 | 1029.1 |
| 20260502044504 | 7 | 12 | 0.0 | 0.0 | 0.00 | 0.00 | 0.00 | 97 | 1029.0 |
| 20260502044002 | 6 | 11 | 0.0 | 0.0 | 0.00 | 0.00 | 0.00 | 97 | 1029.2 |
| 20260502043502 | 5 | 11 | 0.0 | 0.0 | 0.00 | 0.00 | 0.00 | 97 | 1028.9 |
| 20260502043003 | 5 | 11 | 0.0 | 0.0 | 0.00 | 0.00 | 0.00 | 97 | 1028.9 |
| 20260502042503 | 4 | 11 | 0.0 | 0.0 | 0.00 | 0.00 | 0.00 | 97 | 1029.1 |
| 20260502042003 | 3 | 10 | 0.0 | 0.0 | 0.00 | 0.00 | 0.00 | 97 | 1028.9 |
| 20260502041502 | 3 | 10 | 0.0 | 0.0 | 0.00 | 0.00 | 0.00 | 97 | 1029.0 |
| 20260502041002 | 3 | 10 | 0.0 | 0.0 | 0.00 | 0.00 | 0.00 | 96 | 1028.9 |
| 20260502040503 | 3 | 10 | 0.0 | 0.0 | 0.00 | 0.00 | 0.00 | 97 | 1029.0 |
| 20260502040003 | 3 | 10 | 0.0 | 0.0 | 0.00 | 0.00 | 0.00 | 96 | 1028.9 |
| 20260502035503 | 3 | 10 | 0.0 | 0.0 | 0.00 | 0.00 | 0.00 | 96 | 1028.9 |
| 20260502035002 | 3 | 10 | 0.0 | 0.0 | 0.00 | 0.00 | 0.00 | 96 | 1029.2 |
| 20260502034504 | 2 | 10 | 0.0 | 0.0 | 0.00 | 0.00 | 0.00 | 96 | 1029.1 |
| 20260502034003 | 2 | 10 | 0.0 | 0.0 | 0.00 | 0.00 | 0.00 | 96 | 1029.2 |
| 20260502033503 | 2 | 10 | 0.0 | 0.0 | 0.00 | 0.00 | 0.00 | 96 | 1029.2 |
| 20260502033002 | 2 | 10 | 0.0 | 0.0 | 0.00 | 0.00 | 0.00 | 96 | 1029.0 |
| 20260502032503 | 2 | 10 | 0.0 | 0.0 | 0.00 | 0.00 | 0.00 | 96 | 1029.0 |
| 20260502032003 | 3 | 10 | 0.0 | 0.0 | 0.00 | 0.00 | 0.00 | 96 | 1029.0 |
| 20260502031504 | 2 | 10 | 0.0 | 0.0 | 0.00 | 0.00 | 0.00 | 96 | 1029.0 |
| 20260502031004 | 3 | 10 | 0.0 | 0.0 | 0.00 | 0.00 | 0.00 | 96 | 1028.9 |
| 20260502030504 | 3 | 10 | 0.0 | 0.0 | 0.00 | 0.00 | 0.00 | 96 | 1028.9 |
| 20260502030005 | 3 | 10 | 0.0 | 0.0 | 0.00 | 0.00 | 0.00 | 96 | 1028.9 |
| 20260502025502 | 3 | 10 | 0.0 | 0.0 | 0.00 | 0.00 | 0.00 | 96 | 1029.2 |
| 20260502025003 | 3 | 10 | 0.0 | 0.0 | 0.00 | 0.00 | 0.00 | 96 | 1029.0 |
| 20260502024503 | 3 | 10 | 0.0 | 0.0 | 0.00 | 0.00 | 0.00 | 96 | 1029.1 |
| 20260502024004 | 3 | 10 | 0.0 | 0.0 | 0.00 | 0.00 | 0.00 | 96 | 1029.1 |
| 20260502023503 | 3 | 10 | 0.0 | 0.0 | 0.00 | 0.00 | 0.00 | 96 | 1029.0 |
| 20260502023002 | 3 | 10 | 0.0 | 0.0 | 0.00 | 0.00 | 0.00 | 96 | 1028.9 |